Language selection

Weather shortcuts

James Bay - northern half: Past 24 Hour Conditions

 

Arviat Airport

12:00 PM CST 29 February 2024
Disclaimer

This table is a summary of hourly weather conditions for the past 24 hours.
Please note that these observations might not always be representative of weather conditions over their associated marine area.

Date / Time
(CST)
Wind(knots) Conditions Visibility(km) Pressure(kPa) Air tempC) Relative humidity(%) Dew pointC) Wind Chill
29 February 2024
12:00 NNW 16 Ice Crystals 2 102.2 -30 70 -34 -45
11:00 NNW 14 Ice Crystals 5 102.2 -31 69 -35 -46
10:00 NW 12 Ice Crystals 8 102.2 -32 68 -36 -46
9:00 NNW 15 Ice Crystals 10 102.2 -33 68 -37 -49
8:00 NNW 17 Ice Crystals 5 102.2 -33 68 -37 -50
7:00 NW 15 Ice Crystals 24 102.2 -35 66 -39 -51
6:00 NW 14 Light Snow 16 102.2 -35 66 -39 -51
5:00 NW 12 gusts 18 Clear 16 102.2 -35 66 -39 -50
4:00 NW 17 Clear 16 102.2 -35 66 -39 -53
3:00 NW 17 Clear 16 102.1 -35 66 -40 -53
2:00 NNW 17 Clear 16 102.1 -35 66 -40 -53
1:00 NW 16 gusts 21 Clear 16 102.1 -35 65 -40 -53
0:00 NW 15 Clear 16 102.1 -36 65 -40 -52
28 February 2024
23:00 N/A N/A N/A N/A N/A N/A N/A *
22:00 NW 15 Clear 16 102.0 -35 65 -39 -52
21:00 NNW 14 Clear 16 102.0 -35 65 -39 -51
20:00 NNW 14 gusts 19 Clear 16 102.0 -34 66 -39 -50
19:00 NNW 16 Clear 16 102.0 -34 66 -38 -51
18:00 NW 14 Clear 16 101.9 -34 67 -38 -49
17:00 NW 13 Ice Crystals 24 101.9 -33 66 -37 -48
16:00 NNW 13 Ice Crystals 24 101.9 -32 66 -37 -48
15:00 NW 13 gusts 20 Ice Crystals 24 101.8 -32 66 -37 -47
14:00 NW 13 gusts 19 Ice Crystals 24 101.8 -32 65 -37 -47
13:00 NNW 14 gusts 19 Ice Crystals 24 101.8 -33 65 -37 -48
12:00 NNW 15 Ice Crystals 24 101.7 -34 64 -38 -50

Zoom-in to make a selection

Map of Hudson - Hudson Bay marine weather areas Arviat Airport Baker Lake Airport Chesterfield Inlet Airport Coral Harbour Airport Rankin Inlet Airport Sanikiluaq Airport Whale Cove Airport Kinngait (Cape Dorset Airport) Iqaluit Airport Wager Bay Kimmirut Airport Churchill Airport Fort Severn Airport Peawanuck Airport Moosonee Airport Eastmain Airport La Grande Rivière Airport Waskaganish Airport Wemindji Airport Akulivik Airport Inukjuak Airport Ivujivik Airport Kuujjuarapik Airport Puvirnituq Airport Umiujaq Airport Aupaluk Airport Kangiqsujuaq Airport Kangirsuk Airport Kangiqsualujjuaq Airport Kuujjuaq Airport Quaqtaq Airport Salluit Airport Tasiujaq Airport Cape Kakkiviak
Legend:
buoy Buoy
land station Land Station

Hudson - Hudson Bay Area

Another Region

Date modified: